Zurück zum Katalog

STARLINK-32724

AktivKommunikationVLEO
NORAD 62441·PAYLOAD·🇺🇸 United States

Gestartet Dec 29, 2024 von Vandenberg Space Force Base

Loading…

Nächste Überflüge (nächste 24 Stunden)

TLE

AktuellSource: CelesTrak SupGP

Epoche: Sep 15, 2026, 02:22 UTC

1 62441C 24251K   26258.09909722  .00014751  00000+0  43620-3 0  2585
2 62441  53.1569 172.6771 0001436  70.5078  85.1338 15.34355696    16

Verfolge STARLINK-32724 in Echtzeit mit AllMySat

Download on the App Store